Wetbulb
66.65 65.24 61.28 59.03 50.49 48.63 46.37 51.74 59.31 57.87 59.90 61.84 63.69 61.28 59.25 60.89 60.44 55.22 70.45 71.47 73.57 74.41 76.33 77.04 77.58 77.54 77.04 76.61 75.98 75.93 75.15 74.95 75.13 75.70 75.75 76.03 76.20 75.73 75.75 76.23 76.66 76.94 76.27 75.46 75.32 74.89 74.49 74.21 73.69
61.19 58.24 56.68 52.36 47.96 42.52 47.16 55.93 54.28 57.72 62.29 64.45 63.42 62.00 60.79 58.71 65.52 68.34 68.92 72.41 74.08 74.76 76.12 76.23 77.83 77.53 76.86 76.31 76.45 76.42 75.40 74.98 74.88 75.55 75.73 75.53 75.88 75.85 75.48 76.01 76.31 76.33 76.14 75.93 75.57 75.26 74.73 74.08 73.57
62.50 57.98 50.50 48.38 45.23 43.20 44.74 55.75 57.24 60.53 63.43 62.73 60.87 63.51 61.92 61.40 68.92 68.99 70.82 72.94 74.50 74.52 75.41 76.16 77.68 77.46 77.09 76.11 76.10 76.38 75.79 75.20 75.00 75.20 75.68 75.80 75.95 76.44 76.64 76.58 76.46 75.82 75.44 75.29 75.01 74.63 74.31 73.68 73.22
54.09 50.92 48.83 45.69 46.37 47.97 47.68 51.79 60.44 60.63 61.62 62.56 60.65 61.18 65.97 70.35 69.86 70.68 71.83 72.75 73.26 74.15 75.67 77.18 77.54 77.27 77.10 76.28 76.13 76.19 75.84 75.40 75.35 75.05 75.40 75.80 75.85 76.31 76.41 76.72 76.70 76.53 75.58 75.10 74.56 73.71 72.98 72.42 72.14
50.78 47.85 44.46 42.84 47.56 50.56 52.64 54.57 61.59 58.85 60.69 59.12 61.94 58.91 61.61 71.16 71.85 71.10 70.77 71.61 71.66 73.45 75.70 76.50 77.36 77.12 77.03 76.68 76.06 76.34 76.19 75.96 75.89 75.33 75.25 75.50 75.76 75.98 76.08 76.24 75.90 75.55 75.19 74.79 74.09 73.17 73.15 72.86 72.04
49.07 47.76 42.75 40.96 49.00 52.11 52.80 54.79 59.07 61.55 61.15 62.25 59.93 59.29 63.51 71.40 69.90 69.66 70.31 70.09 71.71 73.10 75.00 75.64 76.97 76.89 76.77 76.67 76.50 76.42 76.34 76.00 75.96 76.03 75.74 75.65 75.53 75.65 75.83 75.81 75.70 75.58 75.25 74.68 74.40 73.88 73.73 73.46 73.26
46.77 45.53 42.96 42.86 49.87 51.06 54.48 55.77 50.59 57.79 60.62 59.75 60.63 58.41 65.01 69.26 70.84 70.26 69.51 69.59 70.58 73.18 73.92 74.44 75.41 76.20 76.77 76.49 76.15 75.92 75.74 75.86 75.86 75.69 75.76 75.94 75.46 75.47 75.57 75.62 75.68 75.82 75.47 75.40 75.27 74.89 74.64 74.21 74.07
48.74 46.89 44.92 45.33 48.26 50.60 55.78 56.00 54.85 51.93 61.45 64.40 64.19 62.79 64.91 70.40 71.95 70.71 70.63 70.13 68.42 70.80 72.38 72.55 74.04 74.83 74.88 75.08 76.06 75.85 75.75 75.79 75.53 75.56 75.56 75.48 75.47 75.25 75.20 74.70 74.79 75.65 75.60 75.53 75.20 74.86 74.63 74.43 74.25
50.61 44.74 42.41 45.46 48.18 50.78 55.46 54.05 56.78 56.09 53.94 58.17 62.78 63.68 68.16 72.85 72.05 70.81 69.81 68.27 67.87 68.89 69.17 70.60 71.73 72.23 73.07 73.76 75.16 75.92 75.65 75.78 75.73 75.80 75.90 74.70 72.97 73.03 73.34 73.98 74.32 75.17 75.47 75.22 74.88 74.51 74.41 74.35 74.78
47.19 43.28 46.04 50.96 52.11 51.73 54.96 55.73 54.35 51.97 51.98 52.76 57.97 58.43 67.96 72.53 71.01 69.91 69.10 67.96 67.28 66.97 68.84 69.58 70.44 70.62 71.37 73.80 73.23 73.43 74.29 74.71 74.55 74.06 73.65 72.01 71.12 70.60 72.71 73.28 74.26 74.70 75.05 75.08 74.71 74.37 74.49 74.46 72.20
46.11 44.65 49.65 53.73 53.61 53.29 54.85 56.56 56.53 51.11 50.38 50.36 50.20 52.32 55.34 66.06 69.75 70.43 70.51 69.51 68.27 68.00 68.81 69.81 70.04 69.67 69.67 70.28 71.74 71.81 72.15 72.33 71.94 72.02 71.51 70.38 70.46 69.77 70.78 70.08 70.14 71.05 72.90 71.77 72.24 72.09 71.87 71.73 71.40
43.47 49.28 51.21 51.69 54.48 54.90 53.91 56.99 51.70 52.78 52.81 54.59 52.59 52.82 51.50 55.25 64.63 70.15 70.60 70.15 68.62 68.11 68.29 69.55 70.05 69.77 69.43 70.62 71.42 70.92 71.19 70.47 69.90 70.11 70.01 68.86 67.94 67.49 68.01 68.61 68.76 68.79 69.94 70.48 70.71 69.72 70.40 71.24 71.03
46.43 48.10 49.38 52.49 53.65 52.73 54.91 55.51 55.10 53.04 53.45 54.46 52.59 53.28 52.03 51.33 54.66 53.34 61.07 67.07 69.37 68.32 68.69 69.43 69.80 69.33 69.82 70.23 69.82 69.74 70.06 69.90 69.04 69.04 69.49 68.43 66.95 67.26 68.27 68.61 68.86 68.95 69.22 69.54 69.36 69.26 67.08 67.05 63.07
48.68 49.00 48.54 49.54 50.16 54.90 51.97 53.09 50.79 55.29 53.61 52.87 51.77 52.51 52.09 52.14 51.91 56.14 63.62 66.21 68.96 69.33 69.20 70.15 70.23 69.59 69.66 70.02 68.71 68.75 68.89 68.75 68.67 68.79 69.76 70.48 69.18 69.36 68.89 68.86 68.98 69.78 69.31 69.13 67.77 66.41 61.07 58.12 58.96
47.70 43.93 46.18 46.73 46.24 49.03 51.13 48.05 48.23 53.14 52.95 52.10 52.20 51.82 53.42 54.45 55.97 54.06 58.82 60.31 66.27 67.76 69.91 70.38 70.44 70.97 70.22 69.81 68.70 69.61 69.64 69.77 69.58 69.72 71.41 71.29 69.85 68.72 68.59 68.68 66.59 67.17 67.04 64.48 60.90 58.91 57.74 57.75 59.13
42.80 42.46 39.40 44.09 46.06 48.11 50.05 43.49 49.70 51.83 49.38 50.13 51.03 52.72 56.07 55.94 57.87 59.67 60.65 60.27 62.24 65.37 67.82 70.32 72.76 71.05 71.18 69.99 70.64 71.32 71.40 71.02 70.42 70.31 70.69 71.09 69.87 68.02 67.15 68.61 61.98 61.72 62.01 61.54 59.29 58.40 57.16 58.08 57.77
39.92 36.54 37.72 43.13 45.44 45.82 45.32 43.28 49.27 50.76 49.38 49.51 50.03 54.29 56.18 57.32 60.48 62.69 64.20 64.25 64.11 63.76 65.84 70.43 71.12 71.36 71.84 71.30 71.18 70.62 69.80 69.38 69.99 68.75 68.66 68.87 69.87 68.84 65.46 63.73 61.57 61.51 60.09 59.22 58.99 58.28 58.18 56.20 55.91
37.22 37.19 38.59 41.88 46.55 45.21 41.09 44.22 47.42 48.30 48.97 48.38 53.58 54.49 56.06 59.06 60.70 63.89 65.26 65.72 65.41 65.81 66.26 66.14 66.18 67.20 69.96 70.56 70.11 68.95 67.94 68.30 68.48 68.41 68.61 66.48 67.13 66.88 62.18 61.74 61.57 60.26 58.48 58.06 57.52 55.70 55.94 55.83 54.88
40.77 39.43 39.07 42.45 45.16 41.80 40.57 41.98 45.60 46.81 48.11 48.96 52.91 54.36 56.61 58.35 59.67 62.65 63.82 63.20 62.84 62.03 61.02 61.24 63.41 63.55 64.58 65.64 66.29 65.96 64.46 65.72 65.99 66.04 66.15 65.82 64.70 64.13 62.44 61.05 60.25 58.66 57.24 55.72 56.46 55.25 54.62 54.72 55.27
40.27 38.53 38.62 42.68 45.84 42.29 41.28 41.33 44.33 47.16 47.29 49.18 53.36 54.12 55.65 57.69 59.46 61.29 61.29 60.12 59.37 58.95 59.09 59.52 60.78 61.86 62.96 63.25 63.26 64.03 63.51 62.69 62.05 62.29 62.75 63.45 63.27 62.68 62.10 59.55 58.50 56.31 55.72 56.08 55.06 54.18 53.38 53.57 54.25
39.05 37.89 40.07 41.12 44.43 42.55 40.93 40.41 41.13 47.51 49.26 49.76 53.35 55.14 57.52 57.98 57.70 58.91 59.21 58.41 58.30 57.84 57.92 57.81 58.13 59.22 59.91 60.98 61.74 61.84 61.80 61.28 60.64 60.48 60.13 61.01 62.40 61.42 59.78 59.51 57.89 57.36 56.25 54.58 55.15 54.54 53.81 51.78 52.34
37.08 43.16 43.33 42.19 39.70 36.91 40.93 32.96 39.46 44.45 47.32 50.27 50.20 51.39 53.51 55.06 56.58 58.00 57.50 57.13 57.16 56.77 56.73 56.67 56.64 57.07 58.25 58.77 58.96 58.10 57.58 57.13 58.47 59.42 59.17 59.31 60.16 60.10 60.60 59.97 58.41 55.76 55.29 55.44 55.47 54.66 53.03 52.33 50.77
41.74 44.57 41.26 41.05 36.62 34.63 38.95 34.03 39.60 42.91 43.04 44.68 48.08 49.58 49.57 50.81 53.58 54.06 55.36 57.01 56.32 55.53 53.95 54.09 55.76 56.02 56.74 56.96 57.14 57.24 56.86 57.25 57.67 57.81 57.16 57.59 57.98 59.21 59.44 59.29 58.68 58.27 57.18 55.69 55.38 54.36 52.45 52.32 51.57
45.63 41.56 38.68 36.15 33.86 29.91 35.78 35.24 37.68 39.46 42.42 45.58 48.08 49.15 49.96 49.75 49.60 49.47 50.56 51.65 51.71 51.40 51.82 51.91 51.54 51.34 52.26 54.93 55.70 54.97 54.65 54.72 56.01 57.22 56.43 56.49 56.43 56.06 57.14 57.56 57.59 56.07 55.88 56.12 55.39 54.81 54.31 53.62 52.59
40.84 35.45 29.67 29.23 28.15 28.11 36.18 37.57 36.67 44.08 46.60 46.18 44.27 44.18 44.85 45.57 45.17 45.61 46.63 48.00 48.88 48.67 49.31 50.70 49.36 50.81 51.76 50.93 51.57 53.91 54.33 54.43 53.99 55.24 56.58 56.33 56.04 56.45 55.42 56.31 56.45 54.64 54.15 54.25 53.60 53.03 51.84 52.04 51.35
36.95 35.73 30.32 26.67 25.83 28.34 38.24 33.50 37.20 42.58 43.67 44.19 44.37 44.64 44.95 44.34 44.57 44.82 45.43 45.53 46.37 47.83 47.93 48.23 48.30 47.86 50.43 51.50 51.56 51.29 51.98 53.93 54.21 55.02 55.20 54.24 54.39 54.07 55.01 54.29 53.90 53.99 54.13 53.76 53.48 52.46 51.79 51.47 52.10
36.62 34.49 36.08 30.82 29.12 30.30 33.12 37.58 40.04 42.49 42.02 43.30 43.10 43.55 43.17 43.67 44.13 43.93 44.30 44.43 44.59 45.57 46.92 47.19 47.15 47.10 47.23 48.90 49.70 50.02 50.58 51.41 51.07 52.08 53.75 54.57 53.93 54.97 55.17 54.33 53.82 53.86 54.01 53.85 52.66 51.63 51.27 51.86 51.53
40.12 40.97 33.00 30.38 25.50 24.54 30.86 32.34 30.54 36.31 38.26 39.79 39.48 39.33 40.91 41.77 42.18 42.41 42.88 43.24 43.46 43.45 43.39 44.24 44.31 43.97 44.50 46.20 47.16 47.38 47.28 48.77 50.21 51.17 51.40 52.44 52.74 53.35 54.17 54.23 53.74 53.23 53.43 52.93 53.66 52.75 52.79 52.05 51.30
38.51 36.15 33.74 32.44 30.55 25.84 25.38 28.13 38.12 36.64 37.59 36.66 37.66 39.25 38.96 39.51 39.86 40.43 40.89 41.17 41.01 41.21 41.12 41.54 42.17 42.74 42.88 43.32 45.24 44.26 44.39 45.84 47.08 47.87 49.18 49.96 51.31 51.84 52.65 53.66 53.63 53.44 53.92 52.91 51.98 49.88 50.24 50.48 50.15
40.03 35.64 34.04 28.17 28.91 28.61 27.18 27.03 40.11 38.41 38.11 37.15 37.64 38.89 39.26 39.12 39.43 39.21 39.41 39.97 40.31 40.23 40.80 40.91 40.84 41.01 41.54 41.90 43.28 42.69 43.10 44.29 44.37 45.56 46.49 48.26 48.75 50.32 50.92 51.56 52.86 53.06 53.42 52.38 50.14 49.15 50.21 49.52 49.11
MSLP
1009.48 1009.80 1010.19 1010.48 1010.88 1010.55 1010.75 1010.75 1009.14 1007.46 1006.74 1006.79 1007.17 1007.70 1007.84 1007.75 1007.83 1008.16 1007.31 1007.58 1007.69 1008.55 1009.11 1009.50 1009.80 1009.94 1010.07 1010.30 1010.76 1011.17 1011.61 1011.97 1012.25 1012.45 1012.60 1012.71 1012.77 1012.78 1012.85 1012.94 1013.05 1013.13 1013.18 1013.31 1013.40 1013.45 1013.47 1013.56 1013.73
1009.16 1009.78 1010.07 1010.23 1010.54 1010.85 1010.48 1009.72 1009.08 1006.74 1006.73 1006.81 1007.74 1008.17 1008.20 1007.65 1007.49 1007.86 1007.81 1008.02 1008.00 1008.57 1009.20 1009.70 1009.89 1009.95 1010.23 1010.63 1010.96 1011.38 1011.74 1012.11 1012.43 1012.64 1012.86 1013.01 1013.09 1013.12 1013.15 1013.19 1013.22 1013.29 1013.37 1013.46 1013.53 1013.57 1013.60 1013.68 1013.79
1008.83 1008.82 1009.71 1010.22 1010.20 1010.05 1009.55 1009.07 1007.86 1007.13 1007.76 1007.84 1008.66 1008.38 1008.52 1007.91 1007.62 1007.59 1007.49 1008.15 1008.47 1008.85 1009.28 1009.75 1009.90 1010.18 1010.39 1010.77 1011.23 1011.64 1012.03 1012.36 1012.59 1012.72 1012.94 1013.15 1013.25 1013.39 1013.46 1013.55 1013.51 1013.45 1013.51 1013.59 1013.68 1013.75 1013.76 1013.79 1013.85
1008.52 1009.23 1010.09 1010.11 1010.16 1009.25 1008.81 1008.08 1007.89 1008.11 1008.76 1008.90 1009.84 1009.76 1008.92 1006.98 1007.32 1007.62 1008.26 1008.51 1008.78 1009.41 1009.39 1009.51 1009.83 1010.25 1010.51 1010.82 1011.26 1011.71 1012.11 1012.47 1012.82 1013.00 1013.17 1013.42 1013.56 1013.63 1013.71 1013.74 1013.71 1013.71 1013.72 1013.73 1013.78 1013.89 1013.93 1013.91 1013.99
1008.77 1009.70 1010.48 1010.55 1009.93 1008.88 1007.96 1006.60 1006.90 1008.30 1009.45 1009.92 1010.05 1010.64 1009.92 1007.82 1007.38 1007.77 1008.43 1008.77 1009.00 1009.44 1009.28 1009.56 1009.62 1010.02 1010.30 1010.53 1010.97 1011.50 1012.01 1012.35 1012.71 1013.00 1013.19 1013.33 1013.54 1013.70 1013.79 1013.86 1013.88 1013.82 1013.79 1013.83 1013.85 1013.90 1013.91 1013.85 1013.86
1009.39 1010.39 1010.90 1010.84 1009.99 1008.78 1008.22 1007.68 1007.89 1008.63 1009.93 1008.99 1010.15 1010.77 1009.71 1008.16 1007.74 1007.78 1008.12 1008.65 1009.19 1009.44 1009.48 1009.68 1009.81 1010.10 1010.46 1010.70 1010.97 1011.36 1011.93 1012.35 1012.58 1012.95 1013.16 1013.29 1013.49 1013.65 1013.79 1013.85 1013.92 1013.92 1013.91 1013.97 1014.04 1014.02 1014.03 1014.04 1014.05
1009.91 1010.80 1010.91 1010.37 1009.78 1008.46 1008.24 1007.97 1007.84 1007.91 1009.26 1009.92 1009.70 1011.68 1009.68 1008.66 1007.75 1008.17 1008.89 1009.37 1009.58 1009.86 1009.96 1010.15 1010.31 1010.37 1010.46 1010.69 1010.98 1011.41 1011.86 1012.16 1012.39 1012.72 1013.00 1013.14 1013.35 1013.59 1013.78 1013.88 1013.95 1014.02 1014.03 1014.02 1014.07 1014.02 1013.99 1013.98 1013.94
1009.87 1010.82 1010.88 1010.20 1009.58 1008.62 1007.85 1008.06 1007.17 1007.15 1008.19 1009.43 1009.96 1009.61 1008.41 1007.42 1008.13 1008.85 1009.42 1009.85 1010.12 1010.09 1010.06 1010.19 1010.34 1010.48 1010.67 1010.78 1011.02 1011.40 1011.84 1012.15 1012.31 1012.45 1012.68 1012.88 1013.23 1013.53 1013.75 1013.88 1013.99 1014.12 1014.13 1014.13 1014.11 1014.12 1014.09 1014.03 1013.94
1009.58 1010.74 1010.93 1009.94 1009.15 1008.50 1007.95 1008.43 1006.99 1006.54 1006.88 1008.08 1008.55 1008.22 1006.99 1007.19 1008.20 1009.21 1009.76 1010.15 1010.94 1010.36 1010.53 1010.72 1010.69 1010.78 1011.08 1011.25 1011.47 1011.86 1012.11 1012.40 1012.50 1012.47 1012.59 1012.89 1013.17 1013.44 1013.64 1013.86 1013.98 1014.07 1014.20 1014.22 1014.22 1014.30 1014.25 1014.17 1014.05
1009.90 1010.62 1010.43 1009.20 1008.48 1008.38 1008.33 1007.90 1007.27 1007.01 1007.15 1007.80 1007.63 1006.96 1006.74 1007.11 1008.17 1008.88 1009.54 1009.63 1010.15 1010.36 1010.77 1010.77 1011.13 1011.57 1011.41 1011.27 1011.72 1011.95 1012.20 1012.51 1012.69 1012.71 1012.73 1012.92 1013.17 1013.40 1013.58 1013.69 1013.80 1013.96 1014.11 1014.11 1014.10 1014.11 1014.10 1014.05 1014.15
1009.67 1009.98 1009.54 1008.69 1007.96 1007.60 1007.35 1007.02 1006.95 1007.29 1007.36 1007.17 1007.14 1006.95 1007.02 1007.47 1008.08 1008.51 1008.67 1008.83 1009.27 1009.88 1010.35 1010.96 1011.28 1011.87 1012.25 1012.35 1012.17 1012.21 1012.41 1012.63 1012.74 1012.89 1012.96 1012.98 1013.14 1013.35 1013.50 1013.59 1013.66 1013.84 1013.87 1014.00 1014.03 1014.06 1014.06 1013.99 1014.11
1009.54 1009.11 1008.87 1008.19 1007.68 1007.75 1007.56 1007.03 1008.16 1007.24 1006.75 1006.59 1006.68 1006.89 1007.18 1007.58 1008.01 1008.02 1008.23 1008.51 1009.00 1009.48 1010.10 1010.82 1011.90 1011.75 1011.52 1011.88 1012.15 1012.24 1012.40 1012.58 1012.78 1012.95 1013.07 1013.15 1013.38 1013.51 1013.43 1013.47 1013.59 1013.77 1013.93 1014.01 1013.94 1014.23 1014.06 1013.79 1013.62
1009.23 1008.68 1008.44 1007.86 1007.66 1007.34 1007.18 1006.92 1006.50 1006.32 1005.96 1006.16 1006.72 1006.29 1006.43 1007.89 1007.64 1007.68 1007.86 1007.85 1008.37 1008.94 1009.45 1010.32 1010.99 1011.27 1011.25 1011.55 1011.72 1012.14 1012.37 1012.54 1012.83 1013.00 1013.04 1013.16 1013.33 1013.40 1013.29 1013.35 1013.38 1013.45 1013.71 1013.81 1014.02 1013.88 1014.01 1013.96 1013.84
1008.58 1008.37 1008.00 1007.88 1007.19 1006.67 1006.67 1006.63 1006.42 1005.89 1005.80 1006.47 1006.92 1006.89 1007.00 1007.14 1007.64 1007.60 1007.88 1007.98 1008.20 1008.87 1009.63 1010.22 1011.28 1011.44 1011.51 1011.49 1011.86 1011.96 1012.35 1012.57 1012.78 1013.07 1013.17 1013.09 1013.09 1013.14 1013.29 1013.25 1013.39 1013.49 1013.47 1013.75 1013.81 1013.98 1014.31 1014.36 1014.19
1008.47 1008.46 1008.00 1007.21 1006.99 1006.97 1006.84 1007.31 1006.67 1005.58 1005.48 1006.53 1006.90 1007.06 1007.47 1008.10 1007.77 1008.20 1008.40 1008.73 1009.15 1009.47 1009.58 1009.96 1010.65 1010.96 1011.37 1011.55 1011.85 1012.11 1012.16 1012.27 1012.54 1012.86 1012.80 1012.75 1012.83 1012.88 1013.01 1013.41 1013.64 1013.61 1013.59 1013.78 1014.09 1014.29 1014.45 1014.39 1014.22
1009.01 1008.94 1008.77 1007.83 1007.19 1006.72 1006.68 1006.60 1006.01 1005.89 1006.20 1006.79 1007.03 1007.85 1008.63 1008.76 1008.79 1008.42 1008.60 1008.93 1009.44 1009.81 1009.99 1010.04 1010.31 1011.09 1011.60 1011.86 1011.86 1011.83 1011.78 1011.90 1012.08 1012.38 1012.50 1012.62 1012.83 1013.21 1013.36 1013.71 1013.87 1013.90 1013.98 1014.11 1014.53 1014.62 1014.46 1014.48 1014.55
1010.15 1009.79 1009.30 1008.49 1007.60 1007.42 1007.28 1006.93 1005.85 1005.74 1006.26 1006.74 1008.17 1008.72 1009.24 1009.58 1009.87 1009.53 1009.37 1009.66 1009.92 1010.34 1010.55 1010.72 1011.12 1011.42 1011.72 1012.02 1012.05 1012.03 1011.88 1012.14 1012.24 1012.43 1012.66 1012.84 1013.08 1013.32 1013.67 1013.97 1014.35 1014.29 1014.50 1014.77 1014.74 1014.80 1014.61 1014.95 1015.13
1010.65 1010.22 1009.58 1008.94 1007.88 1007.21 1007.40 1006.56 1006.42 1005.94 1006.37 1007.62 1008.92 1009.50 1010.14 1010.48 1010.98 1010.91 1010.65 1010.79 1010.96 1011.08 1011.31 1011.82 1012.14 1012.12 1012.39 1012.58 1012.67 1012.72 1012.73 1012.85 1012.61 1012.61 1012.83 1013.31 1013.35 1013.57 1013.92 1014.27 1014.49 1014.75 1014.92 1014.86 1015.04 1014.93 1015.23 1015.51 1015.53
1010.17 1010.07 1009.74 1008.82 1008.25 1008.23 1007.98 1007.50 1006.83 1006.91 1007.25 1008.42 1009.59 1010.29 1010.94 1011.52 1011.81 1011.74 1011.98 1012.12 1012.21 1012.40 1012.38 1012.65 1012.65 1012.88 1012.50 1012.73 1013.09 1013.24 1013.42 1013.35 1013.33 1013.41 1013.50 1013.76 1013.83 1013.88 1014.31 1014.77 1015.10 1015.30 1015.03 1015.22 1015.04 1015.16 1015.78 1015.88 1015.56
1010.04 1009.90 1009.51 1008.80 1008.31 1009.15 1008.38 1008.23 1008.14 1008.40 1008.51 1009.06 1010.04 1011.12 1011.59 1012.20 1012.74 1012.99 1013.18 1013.28 1013.40 1013.51 1013.56 1013.60 1013.46 1013.16 1013.03 1013.06 1013.33 1013.36 1013.46 1013.61 1013.76 1013.52 1013.67 1014.08 1013.97 1014.35 1014.69 1014.99 1015.38 1015.39 1015.46 1015.51 1015.27 1015.46 1015.94 1016.35 1016.40
1009.45 1009.72 1009.65 1009.65 1009.27 1009.44 1009.25 1009.62 1010.14 1010.27 1010.09 1010.54 1011.80 1012.51 1013.30 1013.48 1013.87 1014.23 1014.50 1014.68 1014.60 1014.79 1014.68 1014.37 1014.53 1014.13 1014.08 1013.86 1013.72 1013.83 1013.78 1013.91 1013.95 1014.01 1014.11 1014.29 1014.25 1014.39 1014.87 1015.01 1015.32 1015.82 1015.98 1016.04 1015.91 1015.97 1016.18 1016.70 1016.59
1009.53 1009.59 1010.03 1010.21 1010.47 1011.07 1011.19 1012.07 1012.43 1012.77 1012.72 1013.08 1013.75 1014.27 1014.64 1014.91 1015.08 1015.19 1015.69 1015.85 1015.71 1015.60 1015.47 1014.99 1014.96 1014.80 1014.83 1014.85 1014.61 1014.66 1014.75 1014.84 1014.73 1014.48 1014.14 1014.00 1014.07 1014.60 1014.91 1015.36 1015.81 1015.82 1015.82 1016.18 1016.53 1016.27 1016.44 1016.57 1016.83
1009.71 1009.84 1010.66 1011.07 1011.91 1012.63 1013.24 1014.19 1015.48 1014.95 1015.25 1015.62 1015.59 1015.91 1016.31 1016.10 1016.27 1016.43 1016.59 1016.54 1016.23 1016.66 1016.71 1016.05 1015.91 1015.87 1015.44 1015.19 1015.30 1015.51 1015.63 1015.74 1015.71 1015.42 1014.95 1014.27 1014.27 1014.29 1014.51 1014.72 1014.93 1015.32 1015.59 1015.49 1016.08 1015.42 1016.14 1016.12 1016.23
1009.85 1010.64 1011.87 1012.89 1013.75 1014.76 1015.13 1015.58 1017.10 1016.81 1016.92 1017.33 1017.18 1017.33 1017.67 1017.67 1017.74 1017.52 1017.35 1017.05 1017.47 1017.57 1017.19 1016.94 1016.78 1016.56 1016.34 1016.28 1015.99 1015.74 1016.02 1016.00 1015.91 1015.77 1015.91 1015.91 1015.19 1014.21 1014.51 1014.71 1014.84 1015.27 1015.33 1015.50 1015.54 1015.79 1015.85 1016.07 1016.30
1010.76 1012.38 1013.75 1015.02 1015.57 1016.44 1015.98 1016.59 1017.93 1018.20 1018.36 1018.66 1018.98 1019.37 1019.45 1019.22 1019.00 1018.88 1018.79 1018.99 1019.13 1018.99 1018.61 1018.01 1017.83 1017.91 1017.81 1017.48 1017.14 1016.61 1016.63 1016.25 1015.75 1015.39 1015.49 1015.46 1015.54 1014.89 1014.51 1014.81 1014.64 1014.83 1014.93 1015.22 1015.35 1015.46 1015.61 1015.79 1015.52
1012.11 1013.24 1014.85 1016.18 1017.10 1017.28 1016.97 1018.17 1019.53 1019.67 1019.86 1019.91 1020.10 1020.53 1020.64 1020.90 1021.05 1020.93 1020.84 1020.82 1020.71 1020.22 1019.89 1019.66 1019.28 1018.94 1018.78 1018.57 1018.09 1017.62 1017.23 1016.97 1016.53 1016.10 1015.80 1015.06 1015.11 1014.68 1014.44 1014.47 1014.50 1014.28 1014.41 1014.84 1014.89 1014.97 1015.11 1015.23 1015.52
1012.60 1013.94 1014.98 1016.62 1018.02 1018.32 1018.83 1019.30 1020.02 1020.95 1021.18 1021.25 1021.77 1021.84 1022.29 1022.43 1022.63 1022.69 1022.26 1021.65 1021.25 1020.70 1020.31 1019.87 1019.38 1019.13 1019.01 1018.87 1018.45 1018.18 1017.98 1017.47 1016.97 1016.32 1015.76 1015.44 1015.23 1014.83 1014.49 1014.30 1014.27 1014.14 1014.10 1014.31 1014.26 1014.41 1014.55 1014.85 1014.93
1012.81 1014.19 1015.67 1017.37 1019.13 1020.22 1020.40 1021.05 1022.34 1022.45 1022.93 1023.19 1023.16 1023.28 1023.46 1023.44 1023.33 1022.86 1022.43 1022.22 1022.00 1021.65 1021.29 1020.98 1020.73 1020.48 1020.08 1019.54 1018.96 1018.38 1017.83 1017.40 1017.05 1016.63 1016.13 1015.63 1015.21 1014.96 1014.65 1014.25 1014.10 1014.01 1013.90 1013.88 1013.97 1013.93 1014.20 1014.11 1014.07
1014.20 1015.19 1016.91 1018.46 1019.79 1020.91 1021.81 1022.64 1023.05 1023.94 1024.32 1024.40 1024.39 1024.23 1024.08 1023.91 1023.64 1023.56 1023.32 1023.16 1022.86 1022.56 1022.29 1021.95 1021.60 1021.14 1020.65 1020.06 1019.39 1018.85 1018.36 1017.77 1017.10 1016.62 1016.18 1015.84 1015.53 1015.11 1014.71 1014.33 1014.22 1014.10 1014.01 1013.98 1014.01 1013.83 1013.99 1014.07 1014.03
1015.32 1016.50 1017.67 1019.58 1020.78 1021.68 1022.31 1023.18 1023.57 1024.35 1024.82 1025.09 1024.97 1024.74 1024.70 1024.63 1024.47 1024.17 1023.85 1023.48 1023.02 1022.51 1022.02 1021.60 1021.19 1020.84 1020.41 1019.85 1019.38 1018.95 1018.39 1017.82 1017.32 1016.74 1016.23 1015.87 1015.50 1015.01 1014.71 1014.35 1014.12 1013.98 1013.76 1013.65 1013.86 1013.80 1013.67 1013.83 1013.67
Wind_Speed
4 5 4 2 3 6 2 2 6 4 2 5 6 2 3 3 4 3 3 6 15 12 10 10 13 13 15 16 15 15 14 13 13 13 13 12 12 13 13 12 11 11 13 11 10 10 9 8 8
3 5 2 2 4 4 3 6 7 9 5 7 7 3 7 8 2 4 6 8 13 13 10 8 13 14 15 14 14 14 14 14 13 13 12 12 11 11 11 10 10 10 10 9 8 7 6 5 5
4 2 4 4 1 1 4 10 15 9 8 7 5 3 6 4 1 7 7 13 12 12 11 10 14 13 15 15 13 12 12 12 12 13 12 11 11 9 9 8 8 9 8 6 5 5 4 3 2
2 4 5 6 3 1 3 7 12 3 7 15 4 5 14 4 6 5 12 13 12 8 10 13 15 14 15 16 15 14 13 12 10 11 11 9 8 6 6 6 6 6 6 5 4 3 2 2 2
4 3 5 4 4 5 6 13 13 7 7 15 10 13 14 7 10 16 14 12 13 10 10 12 17 17 17 17 17 15 14 13 12 11 11 11 9 7 6 5 4 5 5 4 3 2 2 1 2
5 4 5 2 3 4 3 10 8 5 2 10 10 16 8 3 12 14 15 13 10 11 9 9 15 15 15 15 15 15 14 13 12 11 10 10 10 9 8 7 5 5 4 4 3 2 2 3 4
5 4 3 2 1 4 3 5 2 8 9 5 27 13 9 9 8 9 7 6 7 7 7 5 7 11 15 15 15 14 14 14 13 12 10 10 10 9 8 7 6 5 5 5 5 5 4 5 5
5 5 0 2 2 2 3 6 4 4 9 15 14 7 6 10 9 8 7 6 4 5 6 7 6 6 7 9 14 14 14 14 13 13 12 11 9 8 7 7 7 7 7 6 6 6 6 6 6
3 5 1 3 1 3 2 3 8 5 9 7 9 4 4 12 12 8 6 5 2 4 2 4 4 4 4 4 7 9 13 12 11 12 12 9 4 5 6 6 8 8 7 6 6 7 8 8 8
5 4 9 4 4 1 4 1 1 9 9 5 4 3 4 15 11 10 7 6 5 6 4 5 3 3 4 5 4 4 5 5 4 4 5 4 4 4 4 6 9 8 7 8 8 9 9 8 3
3 5 7 7 9 2 5 5 5 5 5 3 3 4 6 7 9 11 11 12 14 8 6 7 5 3 1 2 2 2 2 2 3 4 4 4 3 3 3 3 2 2 7 3 4 4 3 3 3
1 7 6 5 3 5 4 7 6 6 7 6 7 10 5 8 11 15 14 13 12 12 9 4 4 5 8 4 4 4 3 3 3 3 4 3 2 4 3 3 4 3 1 4 4 3 4 2 1
6 5 4 10 5 4 7 8 9 6 8 7 6 5 2 12 9 8 9 10 11 14 14 10 10 9 8 7 5 4 4 4 3 3 4 4 4 4 3 4 3 3 3 4 2 3 2 2 4
4 5 6 9 9 13 9 7 3 6 7 6 5 8 5 5 5 6 7 6 13 11 12 12 10 9 9 6 7 5 3 4 4 3 4 5 4 3 4 3 1 3 4 2 2 1 2 2 2
4 3 7 6 3 7 6 3 6 12 3 1 8 8 8 3 9 6 6 7 5 3 6 8 7 8 9 7 4 3 4 4 4 4 6 6 5 5 4 2 2 2 1 3 3 2 2 3 3
3 5 2 7 1 4 10 9 15 10 6 7 7 7 8 9 10 10 11 10 8 8 8 6 5 6 5 2 4 5 4 4 4 4 3 4 3 3 2 2 3 2 4 3 3 2 3 4 5
7 2 2 9 2 1 5 10 8 8 8 6 7 7 11 11 12 11 13 11 10 9 9 9 7 6 5 3 3 2 4 3 4 3 2 1 2 4 2 3 2 4 4 3 2 3 4 5 5
4 2 3 5 7 3 4 20 5 6 7 8 8 8 10 12 9 9 12 11 11 11 12 11 7 7 4 4 4 3 2 2 2 3 2 1 3 4 5 4 4 3 3 4 3 6 5 3 3
3 3 5 7 7 1 5 6 6 2 7 11 9 9 10 10 3 7 10 9 11 11 12 8 9 6 5 4 2 1 1 2 4 4 5 4 5 6 6 4 4 3 4 4 5 3 5 4 6
3 3 8 8 3 4 2 4 5 6 3 8 15 9 10 8 7 9 10 11 11 8 7 8 7 6 6 3 2 2 3 3 3 3 6 5 5 5 4 5 4 5 4 5 6 6 3 3 4
2 4 2 4 3 2 4 8 8 15 9 5 8 9 8 8 10 10 11 10 10 10 8 9 7 8 7 5 3 3 3 3 3 4 3 3 4 5 4 5 4 4 3 4 5 4 5 2 2
3 2 1 1 4 1 5 4 11 16 15 13 12 11 10 10 11 11 10 9 8 7 7 8 7 7 7 8 6 6 3 2 2 1 1 4 5 4 4 3 1 3 4 5 3 3 2 2 2
4 1 2 2 4 5 8 7 11 7 12 11 12 14 13 12 12 10 8 7 8 8 9 9 10 9 6 7 7 5 5 3 3 4 3 4 4 5 6 6 6 3 2 4 4 4 1 2 2
3 4 8 5 4 6 6 6 8 4 2 9 15 16 15 16 15 16 16 16 15 14 14 14 12 13 13 9 7 6 4 1 2 1 2 4 3 3 4 4 5 4 5 3 2 1 1 1 2
9 7 4 5 6 3 4 9 3 3 10 13 14 15 16 16 17 17 17 15 14 15 13 13 14 14 11 9 9 8 8 6 4 6 5 4 3 2 5 5 6 4 5 5 5 3 1 3 2
4 5 6 3 2 3 4 6 6 14 14 15 15 13 15 15 13 13 12 10 10 11 11 11 9 10 10 9 10 8 8 4 5 5 5 3 4 5 4 6 5 6 6 5 5 3 3 3 3
1 5 3 7 3 5 1 6 12 11 13 15 15 15 12 10 10 8 8 10 10 11 12 13 13 12 11 10 8 6 6 7 6 7 6 5 6 4 6 7 7 7 7 7 7 5 4 3 3
6 3 4 5 2 3 1 4 1 6 9 11 13 10 7 6 8 9 10 11 8 8 9 10 9 8 8 9 7 8 8 8 7 6 7 7 6 5 6 6 5 5 5 4 4 3 3 4 3
6 4 7 6 4 6 4 4 5 2 4 6 7 7 8 8 8 8 7 7 7 7 6 7 7 7 7 7 7 7 9 11 9 6 7 6 6 7 6 6 6 6 6 7 5 4 5 4 4
5 4 4 7 3 2 4 6 6 6 3 2 5 7 7 5 7 6 8 8 8 8 9 8 6 6 6 7 6 7 7 8 9 10 7 7 7 7 7 6 6 6 7 6 6 5 3 4 5
Wind_Direction
229 149 153 93 55 63 18 136 239 264 241 195 97 133 219 291 266 230 85 109 124 131 151 154 158 141 133 130 129 127 126 124 123 123 122 123 124 126 126 127 128 132 136 137 133 125 123 126 127
189 126 76 98 80 77 276 182 245 250 99 32 28 271 346 308 265 126 117 144 127 133 144 153 155 142 137 134 132 132 132 131 131 130 127 127 123 125 128 130 130 134 140 141 134 125 121 119 116
186 122 86 91 96 140 190 223 206 269 44 80 25 28 285 224 28 154 129 139 123 134 150 164 149 144 140 138 135 132 132 136 139 141 139 137 134 131 130 131 133 137 140 138 131 125 120 104 88
135 13 31 79 354 276 253 248 221 227 72 43 11 355 321 281 157 124 132 130 124 143 154 155 150 147 144 143 142 141 142 143 143 145 144 141 139 130 127 130 130 132 132 132 129 119 91 54 1
37 61 49 77 290 281 331 347 179 64 94 74 47 330 300 327 106 134 142 143 150 165 157 160 157 156 154 152 152 151 151 150 153 155 156 156 158 159 154 146 137 143 153 156 153 162 189 209 280
22 91 55 57 310 352 344 349 90 89 114 180 58 341 280 199 145 160 158 164 166 161 154 161 161 157 155 154 154 154 157 158 158 160 162 164 171 177 181 179 182 181 177 176 189 215 257 295 311
107 76 203 205 141 337 42 307 123 171 149 234 136 183 259 209 194 152 134 131 151 152 128 133 160 164 159 158 157 160 164 164 163 163 166 170 179 186 193 198 206 208 206 207 217 237 257 279 290
105 93 11 282 104 281 39 318 276 121 169 117 155 233 211 221 135 121 106 99 122 136 151 156 156 162 164 163 164 167 171 173 170 168 172 176 183 190 201 207 218 225 229 233 245 266 277 278 281
99 67 181 262 228 197 321 354 322 295 86 96 200 228 207 120 124 109 118 109 171 167 163 101 143 140 142 143 171 171 176 181 179 176 176 176 168 192 207 213 227 237 246 260 275 286 284 283 283
100 127 206 236 295 269 230 80 241 31 58 27 265 64 97 143 144 140 174 181 189 185 173 186 150 145 141 163 156 154 178 179 192 193 176 165 178 192 202 218 236 243 250 257 266 268 275 286 302
162 183 199 242 249 233 302 343 155 96 24 192 177 151 128 146 158 172 195 202 191 180 179 181 169 128 160 322 152 160 168 168 191 201 186 179 178 195 204 220 239 232 249 253 277 290 284 291 312
142 246 201 242 329 311 228 141 241 182 179 202 246 171 151 157 173 190 208 208 176 175 182 161 142 167 187 173 186 178 169 182 198 206 190 175 193 216 220 214 222 223 242 250 245 303 307 283 289
183 254 172 243 147 226 276 269 271 200 192 165 259 309 232 146 201 225 223 214 181 180 172 177 172 190 193 185 175 176 189 190 194 199 201 189 208 222 227 230 219 196 203 242 227 224 296 25 29
220 233 262 260 208 208 174 251 30 196 126 168 209 213 257 335 83 146 155 177 181 172 165 174 177 194 199 187 185 179 182 166 179 193 210 207 209 186 196 225 230 246 198 199 200 141 94 53 16
247 281 325 293 299 216 131 338 236 250 23 140 194 179 126 8 66 65 51 68 63 68 110 164 175 172 187 191 168 148 181 171 181 201 204 197 197 180 164 130 186 278 18 90 75 80 93 37 8
354 46 1 291 258 206 151 220 242 248 184 221 173 68 77 35 50 83 82 73 64 76 84 88 90 91 91 126 155 163 174 187 189 198 194 184 185 215 144 57 56 61 88 87 90 39 54 35 18
4 206 232 316 208 91 164 255 199 202 181 223 93 107 97 84 59 60 69 66 62 59 60 61 64 77 94 82 86 129 165 171 184 187 158 138 122 101 53 99 56 74 71 60 49 56 64 39 5
260 333 300 262 315 15 277 249 234 177 182 114 120 110 101 92 74 73 68 60 54 60 69 76 68 51 63 106 72 35 19 360 49 63 89 97 141 104 90 82 103 106 88 55 35 56 37 75 332
207 226 261 280 267 35 287 253 193 78 101 109 126 127 111 99 70 65 75 77 79 55 62 56 72 31 57 65 72 60 358 45 52 32 45 50 48 58 76 66 55 35 74 81 54 63 48 23 4
246 347 309 293 295 178 322 26 353 38 15 145 143 136 128 118 84 70 57 55 55 60 58 55 59 53 50 62 68 108 118 74 97 91 69 77 86 84 89 101 81 66 77 50 54 56 33 22 23
239 189 193 235 345 325 31 344 23 354 14 71 64 70 68 85 83 67 63 54 58 51 44 53 39 45 37 54 82 61 50 53 49 38 55 20 44 61 70 92 74 50 40 63 65 66 72 22 334
88 213 210 8 63 252 23 282 17 359 39 49 44 44 48 44 49 58 59 58 58 45 44 61 55 53 34 10 49 53 43 57 331 26 122 126 112 87 92 91 134 116 112 82 49 69 68 78 343
197 181 353 128 93 72 360 75 315 354 23 18 50 61 52 54 56 47 53 73 61 43 31 30 35 23 51 82 59 51 54 30 360 354 36 108 106 127 139 146 138 130 73 119 183 83 50 156 110
22 55 38 52 79 55 291 126 340 8 358 72 71 54 48 48 42 37 36 37 37 32 32 32 28 25 17 8 17 66 100 99 52 17 337 299 295 127 137 142 146 155 149 151 141 177 174 239 260
49 52 346 16 22 191 287 57 166 20 49 63 65 58 49 48 43 37 36 34 32 25 22 26 24 24 10 12 12 8 339 311 229 193 203 212 250 248 189 185 175 179 181 184 179 184 224 259 223
36 124 144 148 167 193 16 141 46 63 65 63 64 61 49 40 36 35 32 30 28 29 27 28 24 22 13 4 356 4 358 339 319 317 308 249 224 225 206 207 211 194 189 197 184 179 196 206 248
357 41 182 105 9 72 86 81 47 40 47 44 49 48 46 43 34 26 26 25 11 12 10 8 6 4 1 351 355 358 346 348 333 318 296 274 277 261 224 214 211 208 197 196 180 188 196 203 230
92 147 45 11 123 103 286 76 136 349 23 29 24 18 9 18 19 16 17 8 359 355 347 349 345 337 336 338 336 336 334 335 332 328 326 320 309 306 292 262 249 258 243 239 220 216 225 204 238
349 22 53 106 120 152 175 254 147 98 34 20 349 348 350 7 6 1 345 334 329 324 316 303 305 298 303 308 300 323 320 315 311 306 312 313 304 293 286 282 284 286 285 277 253 238 243 241 262
94 89 93 112 232 77 137 248 128 140 139 51 340 334 337 9 341 330 330 328 326 320 323 318 304 295 292 294 296 297 294 298 305 304 296 292 296 293 283 291 278 260 257 244 234 243 245 275 287